Satellite-Ground Cal/Val Region Overpasses Predictions

Prediction of Satellite NPP Overpassing Cal/Val Region: PacNW

Region Location: (Latitude: 10.00, Longitude: 139.50) to (Latitude: 22.70, Longitude: 165.60).

Table of predicted overpasses for the next 14.0 days since TLE Epoch: 9/17/2022
Interval Starting Time Starting Location Ending Time Ending Location
1 09/17/2022 14:59:32 ( 22.65, 160.16) 09/17/2022 15:03:07 ( 10.03, 157.15)
2 09/18/2022 02:11:09 ( 18.95, 165.59) 09/18/2022 02:12:12 ( 22.64, 164.68)
3 09/18/2022 03:50:07 ( 10.03, 142.31) 09/18/2022 03:53:28 ( 21.83, 139.51)
4 09/18/2022 14:40:31 ( 22.64, 164.91) 09/18/2022 14:44:06 ( 10.02, 161.91)
5 09/18/2022 16:22:00 ( 22.70, 139.55) 09/18/2022 16:22:03 ( 22.52, 139.51)
6 09/19/2022 03:31:05 ( 10.03, 147.06) 09/19/2022 03:34:40 ( 22.65, 144.06)
7 09/19/2022 16:02:58 ( 22.69, 144.31) 09/19/2022 16:06:34 ( 10.01, 141.29)
8 09/20/2022 03:12:04 ( 10.04, 151.82) 09/20/2022 03:15:39 ( 22.66, 148.81)
9 09/20/2022 15:43:57 ( 22.69, 149.06) 09/20/2022 15:47:33 ( 10.01, 146.04)
10 09/21/2022 02:53:02 ( 10.04, 156.57) 09/21/2022 02:56:37 ( 22.67, 153.57)
11 09/21/2022 15:24:55 ( 22.68, 153.82) 09/21/2022 15:28:31 ( 10.00, 150.80)
12 09/22/2022 02:34:01 ( 10.05, 161.33) 09/22/2022 02:37:36 ( 22.68, 158.32)
13 09/22/2022 15:05:54 ( 22.67, 158.57) 09/22/2022 15:09:29 ( 10.05, 155.57)
14 09/23/2022 02:15:35 ( 12.18, 165.60) 09/23/2022 02:18:34 ( 22.68, 163.08)
15 09/23/2022 03:56:28 ( 10.01, 140.72) 09/23/2022 03:57:57 ( 15.24, 139.51)
16 09/23/2022 14:46:52 ( 22.66, 163.33) 09/23/2022 14:50:27 ( 10.04, 160.32)
17 09/24/2022 03:37:27 ( 10.02, 145.48) 09/24/2022 03:41:03 ( 22.70, 142.46)
18 09/24/2022 14:30:48 ( 12.27, 165.59) 09/24/2022 14:31:26 ( 10.03, 165.08)
19 09/24/2022 16:09:21 ( 22.65, 142.71) 09/24/2022 16:12:56 ( 10.03, 139.70)
20 09/25/2022 03:18:26 ( 10.03, 150.23) 09/25/2022 03:22:01 ( 22.65, 147.23)
21 09/25/2022 15:50:18 ( 22.70, 147.48) 09/25/2022 15:53:54 ( 10.02, 144.46)
22 09/26/2022 02:59:24 ( 10.04, 154.99) 09/26/2022 03:02:59 ( 22.66, 151.98)
23 09/26/2022 15:31:17 ( 22.69, 152.23) 09/26/2022 15:34:53 ( 10.01, 149.21)
24 09/27/2022 02:40:23 ( 10.05, 159.74) 09/27/2022 02:43:58 ( 22.67, 156.74)
25 09/27/2022 15:12:15 ( 22.68, 156.99) 09/27/2022 15:15:50 ( 10.06, 153.98)
26 09/28/2022 02:21:20 ( 10.00, 164.51) 09/28/2022 02:24:56 ( 22.69, 161.49)
27 09/28/2022 14:53:14 ( 22.66, 161.74) 09/28/2022 14:56:49 ( 10.04, 158.74)
28 09/29/2022 03:43:49 ( 10.02, 143.89) 09/29/2022 03:47:24 ( 22.65, 140.89)
29 09/29/2022 14:35:14 ( 19.01, 165.60) 09/29/2022 14:37:47 ( 10.03, 163.49)
30 09/29/2022 16:15:42 ( 22.64, 141.12) 09/29/2022 16:17:35 ( 16.02, 139.51)
31 09/30/2022 03:24:47 ( 10.04, 148.64) 09/30/2022 03:28:22 ( 22.66, 145.64)
32 09/30/2022 15:56:40 ( 22.69, 145.89) 09/30/2022 16:00:16 ( 10.01, 142.87)
